Location: Zagreb
(45.8000°N, 16.0000°E)
Time: 15:20:24
(UTC+01:00)

CAS-4B - Pass Details

Date: 02 November 2020
Orbit: 529 x 544 km, 43.0° (Epoch: 28 November)

Event Time Altitude Azimuth Distance (km) Brightness Sun altitude
Exits shadow 04:46:58 28° 205° (SSW) 1,006 ? -19.7°
Maximum altitude 04:47:00 28° 204° (SSW) 1,005 ? -19.7°
Drops below altitude 10° 04:50:30 10° 144° (SE) 1,769 ? -19.1°
Sets 04:52:55 0° 133° (SE) 2,654 ? -18.7°
